Location: Wildlife_Club
(35.6000°N, 81.4330°W)
Time: 21:00:48
(UTC-04:00)

A-11 Canister half - Pass Details

Date: 25 June 2019
Orbit: 1514 x 1686 km, 47.2° (Epoch: 13 October)

Event Time Altitude Azimuth Distance (km) Brightness Sun altitude
Rises 18:32:25 0° 301° (WNW) 4,769 12.8 24.3°
Reaches altitude 10° 18:35:43 10° 295° (WNW) 3,758 12.8 23.7°
Maximum altitude 18:44:25 43° 228° (SW) 2,045 10.4 21.9°
Drops below altitude 10° 18:52:55 10° 160° (SSE) 3,665 10.7 20.3°
Sets 18:56:07 0° 154° (SSE) 4,640 11.1 19.6°
